This demonstration page uses our WeatherBlox Daily Observations layout. Learn more.

Left ArrowRight Arrow

39.51506, -84.39828

Hourly Observations for May 14, 2021

Temp ( °F °C ) Dew Point ( °F °C ) Humidity (%) Winds ( mph kmh ) Pressure ( in mb ) Visibility ( mi km ) Precip ( " mm )
12:15 am 00:15 Clear 44 6.9 41 5.1 88 88 NNE 3 6 30.35 1028 10 16.0934 N/A
12:35 am 00:35 Clear 44 6.5 41 5.1 91 91 NNE 5 7 30.35 1028 10 16.0934 N/A
12:55 am 00:55 Clear 43 6.3 41 4.9 91 91 NE 5 7 30.35 1028 10 16.0934 N/A
1:15 am 01:15 Clear 43 6 40 4.2 88 88 NNE 3 6 30.35 1028 10 16.0934 N/A
1:35 am 01:35 Clear 43 5.9 40 4.3 90 90 NNE 5 7 30.35 1028 10 16.0934 N/A
1:55 am 01:55 Clear 41 4.9 38 3.6 91 91 NNE 3 6 30.35 1028 10 16.0934 N/A
2:15 am 02:15 Clear 40 4.2 38 3.6 96 96 N N/A 30.35 1028 10 16.0934 N/A
2:35 am 02:35 Clear 40 4.2 39 3.9 98 98 NNE 3 6 30.35 1028 10 16.0934 N/A
2:55 am 02:55 Clear 40 4.7 40 4.3 97 97 N 3 6 30.35 1028 10 16.0934 N/A
3:15 am 03:15 Clear 40 4.4 40 4.3 99 99 N 3 6 30.35 1028 10 16.0934 N/A
3:35 am 03:35 Clear 40 4.3 39 4 98 98 NNE 5 7 30.35 1028 10 16.0934 N/A
3:55 am 03:55 Clear 39 3.9 38 3.2 95 95 NNE 5 7 30.35 1028 10 16.0934 N/A
4:15 am 04:15 Clear 39 3.9 38 3.4 97 97 N N/A 30.35 1028 10 16.0934 N/A
4:35 am 04:35 Clear 39 4 38 3.3 95 95 NNE 5 7 30.35 1028 10 16.0934 N/A
4:55 am 04:55 Clear 38 3.3 37 3 98 98 N 3 6 30.36 1028 10 16.0934 N/A
5:15 am 05:15 Clear 38 3.6 38 3.5 99 99 N 3 6 30.36 1028 10 16.0934 N/A
5:35 am 05:35 Clear 37 3 37 3 100 100 N N/A 30.36 1028 10 16.0934 N/A
5:55 am 05:55 Clear 37 3 N/A N/A N N/A 30.37 1028 10 16.0934 N/A
6:15 am 06:15 Clear 37 3 N/A N/A N 3 6 30.37 1028 10 16.0934 N/A
6:35 am 06:35 Sunny 37 3 N/A N/A N N/A 30.38 1029 10 16.0934 N/A
6:55 am 06:55 Sunny 37 3 N/A N/A NNE 3 6 30.38 1029 10 16.0934 N/A
7:15 am 07:15 Sunny 39 4 N/A N/A NNE 3 6 30.39 1029 10 16.0934 N/A
7:35 am 07:35 Sunny 42 5.3 42 5.3 100 100 ENE 3 6 30.39 1029 10 16.0934 N/A
7:55 am 07:55 Sunny 44 6.6 42 5.7 94 94 E 3 6 30.4 1029 10 16.0934 N/A
8:15 am 08:15 Sunny 46 7.7 43 6 89 89 N N/A 30.4 1029 10 16.0934 N/A
8:35 am 08:35 Sunny 48 8.9 44 6.4 85 85 N N/A 30.39 1029 10 16.0934 N/A
8:55 am 08:55 Sunny 51 10.5 43 6.3 75 75 N N/A 30.39 1029 10 16.0934 N/A
9:15 am 09:15 Sunny 53 11.9 43 6.3 69 69 N N/A 30.38 1029 10 16.0934 N/A
9:35 am 09:35 Sunny 55 12.9 43 6 63 63 E 3 6 30.38 1029 10 16.0934 N/A
9:55 am 09:55 Sunny 59 14.8 45 7 60 60 E 3 6 30.38 1029 10 16.0934 N/A
10:15 am 10:15 Sunny 61 16.2 41 5.1 48 48 ENE 3 6 30.37 1029 10 16.0934 N/A
10:35 am 10:35 Sunny 63 17.1 37 2.9 39 39 E 3 6 30.36 1028 10 16.0934 N/A
10:55 am 10:55 Sunny 64 17.8 36 2.2 35 35 SE 3 6 30.36 1028 10 16.0934 N/A
11:15 am 11:15 Sunny 65 18.3 35 1.4 32 32 E 5 7 30.36 1028 10 16.0934 N/A
11:35 am 11:35 Sunny 65 18.5 34 0.9 31 31 ENE 6 9 30.36 1028 10 16.0934 N/A
11:55 am 11:55 Sunny 67 19.4 33 0.3 28 28 E 6 9 30.35 1028 10 16.0934 N/A
12:15 pm 12:15 Sunny 66 19 29 -1.8 25 25 N N/A 30.35 1028 10 16.0934 N/A
12:35 pm 12:35 Sunny 66 18.8 31 -0.7 27 27 N 3 6 30.34 1027 10 16.0934 N/A
12:55 pm 12:55 Sunny 67 19.6 33 0.3 28 28 ESE 3 6 30.34 1027 7 11.26538 N/A
1:15 pm 13:15 Mostly Cloudy 67 19.2 31 -0.5 27 27 N 7 11 30.33 1027 10 16.0934 N/A
1:35 pm 13:35 Cloudy 66 18.8 34 1.2 31 31 NNE 7 11 30.32 1027 10 16.0934 N/A
1:55 pm 13:55 Partly Cloudy 68 19.8 35 1.9 31 31 W 6 9 30.31 1027 10 16.0934 N/A
2:15 pm 14:15 Mostly Cloudy 68 19.8 34 1.3 29 29 E 6 9 30.3 1026 10 16.0934 N/A
2:35 pm 14:35 Cloudy 66 19.1 33 0.6 29 29 N N/A 30.31 1026 10 16.0934 N/A
2:55 pm 14:55 Mostly Cloudy 68 19.8 32 0.1 27 27 NNW 6 9 30.3 1026 10 16.0934 N/A
3:15 pm 15:15 Sunny 68 20.2 33 0.3 27 27 NNW 5 7 30.29 1026 10 16.0934 N/A
3:35 pm 15:35 Sunny 69 20.8 34 1 27 27 ESE 6 9 30.28 1025 10 16.0934 N/A
3:55 pm 15:55 Mostly Cloudy 69 20.6 33 0.5 26 26 NNW 7 11 30.28 1025 10 16.0934 N/A
4:15 pm 16:15 Cloudy 69 20.6 32 0.2 26 26 ENE 5 7 30.27 1025 10 16.0934 N/A
4:35 pm 16:35 Sunny 70 21 33 0.6 26 26 SSE 6 9 30.26 1025 10 16.0934 N/A
4:55 pm 16:55 Partly Cloudy 70 21 32 -0.1 25 25 ENE 5 7 30.26 1025 10 16.0934 N/A
5:15 pm 17:15 Mostly Cloudy 69 20.8 33 0.8 26 26 WNW 6 9 30.26 1025 10 16.0934 N/A
5:35 pm 17:35 Mostly Cloudy 70 20.9 32 -0.1 25 25 WNW 5 7 30.25 1024 10 16.0934 N/A
5:55 pm 17:55 Cloudy 70 21.1 32 0.2 25 25 W 7 11 30.25 1024 10 16.0934 N/A
6:15 pm 18:15 Cloudy 67 19.4 37 2.6 33 33 WSW 6 9 30.26 1025 10 16.0934 N/A
6:35 pm 18:35 Mostly Cloudy 69 20.4 35 1.4 28 28 WSW 7 11 30.24 1024 10 16.0934 N/A
6:55 pm 18:55 Sunny 69 20.3 32 -0.2 25 25 N N/A 30.24 1024 10 16.0934 N/A
7:15 pm 19:15 Sunny 68 19.9 33 0.4 27 27 SW 3 6 30.24 1024 10 16.0934 N/A
7:35 pm 19:35 Sunny 68 20.1 29 -1.4 24 24 N N/A 30.24 1024 10 16.0934 N/A
7:55 pm 19:55 Sunny 65 18.6 40 4.2 39 39 N N/A 30.25 1024 10 16.0934 N/A
8:15 pm 20:15 Hazy 62 16.9 46 7.8 55 55 N N/A 30.25 1024 4 6.43736 N/A
8:35 pm 20:35 Sunny 58 14.6 44 6.9 60 60 N N/A 30.26 1025 10 16.0934 N/A
8:55 pm 20:55 Clear 54 12.3 44 6.5 68 68 N N/A 30.26 1025 10 16.0934 N/A
9:15 pm 21:15 Clear 54 12.4 44 6.6 68 68 N N/A 30.27 1025 10 16.0934 N/A
9:35 pm 21:35 Clear 51 10.7 44 6.4 75 75 N N/A 30.28 1025 10 16.0934 N/A
9:55 pm 21:55 Clear 51 10.6 44 6.6 77 77 N N/A 30.28 1025 10 16.0934 N/A
10:15 pm 22:15 Clear 50 10 43 6.1 77 77 N N/A 30.29 1026 10 16.0934 N/A
10:35 pm 22:35 Partly Cloudy 50 10 42 5.3 73 73 N N/A 30.29 1026 10 16.0934 N/A
10:55 pm 22:55 Clear 49 9.3 42 5.6 78 78 SE 3 6 30.29 1026 10 16.0934 N/A
11:15 pm 23:15 Clear 46 8 41 5 82 82 N N/A 30.29 1026 10 16.0934 N/A
11:35 pm 23:35 Clear 46 8 41 5.2 83 83 N N/A 30.29 1026 10 16.0934 N/A
11:55 pm 23:55 Clear 47 8.2 40 4.5 78 78 N N/A 30.29 1026 10 16.0934 N/A

Powered by AerisWeather